Погода в Рыбном

Россия / Рязанская область     54°43′50″N   39°30′19″E
темп.,
°C
ветер,
м/с
пор.,
м/с
влажн.,
%
обл.,
%
осадки,
мм/ч
давл.,
гПа
погр.,
м
24 сентября, пт
пт2400:00+8ююз359093 0.0 1010128
03:00+6ююз379397 0.0 1009136
06:00+6ю379479 0.0 1008168
09:00+8ююв51087100 0.1 1008489
12:00+10ю697899 0.3 1007986
15:00+11ю696979 0.7 10071134
18:00+9ююв477714 0.1 1006137
21:00+7юв4988100 0.1 1007183
25 сентября, сб
сб2500:00+8юв4981100 0.0 1007241
03:00+7ююв358316 0.0 1007113
06:00+5ю22885 0.0 100821
09:00+9ю35715 0.0 1009321
12:00+13ю585796 0.0 10081533
15:00+11юз4671100 0.0 1009510
18:00+10ю3677100 0.0 1009198
21:00+9ю4980100 0.0 1008256
26 сентября, вс
вс2600:00+9ю388795 0.0 1007219
03:00+9ю4793100 0.8 1006299
06:00+9ю4996100 2.5 1004447
09:00+9з3795100 3.8 1004542
12:00+9зсз5891100 0.3 1005568
15:00+9ссз5894100 0.4 1006578
18:00+9с6995100 1.1 1008564
21:00+8с51094100 1.6 1010511
27 сентября, пн
пн2700:00+9с51095100 0.5 1012438
03:00+9с51095100 0.9 1015460
06:00+7с5119531 0.0 1017416
09:00+8с61085100 0.0 1019532
12:00+9с5988100 0.0 1021544
15:00+9с5887100 0.1 1021733
18:00+8с4993100 0.2 1023499
21:00+8ссв4893100 0.4 1024450
28 сентября, вт
вт2800:00+8ссв4792100 0.1 1025479
03:00+7ссв4792100 0.1 1027466
06:00+7ссв4793100 0.1 1028485
09:00+7св3692100 0.1 1029423
12:00+8всв4582100 0.0 1031639
15:00+9св237789 0.0 1031686
18:00+8ссв3479100 0.0 1032138
21:00+7ссв2580100 0.0 1032176